Location: Drocourt
(49.0571°N, 1.7669°E)
Time: 15:14:13
(UTC+00:00)

Vanguard 2 Rocket - Pass Details

Date: 21 April 2024
Orbit: 556 x 3304 km, 32.9° (Epoch: 22 May)

Event Time Altitude Azimuth Distance (km) Brightness Sun altitude
Rises 23:54:39 0° 257° (WSW) 6,859 11.2 -29.0°
Reaches altitude 10° 23:59:13 10° 252° (WSW) 6,043 10.9 -29.0°
Maximum altitude 00:17:24 46° 188° (S) 3,943 9.5 -28.7°
Drops below altitude 10° 00:33:30 10° 122° (ESE) 5,402 10.6 -28.3°
Sets 00:37:19 0° 117° (ESE) 6,110 11.0 -28.1°
